Location: Great Malvern
(52.1167°N, 2.3167°W)
Time: 03:11:31
(UTC+00:00)

ATLAS CENTAUR R/B - Pass Details

Date: 18 September 2020
Orbit: 479 x 667 km, 64.7° (Epoch: 12 October)

Event Time Altitude Azimuth Distance (km) Brightness Sun altitude
Rises 21:06:49 0° 300° (WNW) 2,599 6.1 -24.9°
Reaches altitude 10° 21:10:11 10° 331° (NNW) 1,688 4.7 -25.3°
Maximum altitude 21:11:47 12° 357° (N) 1,539 4.1 -25.5°
Drops below altitude 10° 21:13:23 10° 22° (NNE) 1,671 4.0 -25.7°
Enters shadow 21:13:42 - 27° (NNE) 1,728 4.0 -25.7°
